Time,TemperatureF,DewpointF,PressureIn,WindDirection,WindDirectionDegrees,WindSpeedMPH,WindSpeedGustMPH,Humidity,HourlyPrecipIn,Conditions,Clouds,dailyrainin,SoftwareType,DateUTC
2013-04-26 00:02:00,47.0,37.0,30.33,WSW,239,0.0,0.0,69,0.00,,,0.25,,2013-04-26 04:02:00,
2013-04-26 00:12:00,47.0,37.0,30.33,WSW,239,0.0,0.0,69,0.00,,,0.25,,2013-04-26 04:12:00,
2013-04-26 00:23:00,47.0,37.0,30.33,WSW,239,0.0,0.0,69,0.00,,,0.00,,2013-04-26 04:23:00,
2013-04-26 00:32:00,47.0,38.0,30.33,WSW,239,0.0,0.0,70,0.00,,,0.00,,2013-04-26 04:32:00,
2013-04-26 00:43:00,47.0,38.0,30.33,WSW,239,0.0,0.0,70,0.00,,,0.00,,2013-04-26 04:43:00,
2013-04-26 00:53:00,47.0,38.0,30.33,WSW,239,0.0,0.0,71,0.00,,,0.00,,2013-04-26 04:53:00,
2013-04-26 01:02:00,47.0,38.0,30.33,WSW,239,0.0,0.0,71,0.00,,,0.00,,2013-04-26 05:02:00,
2013-04-26 01:12:00,47.0,38.0,30.33,WSW,239,0.0,0.0,71,0.00,,,0.00,,2013-04-26 05:12:00,
2013-04-26 01:22:00,47.0,38.0,30.33,WSW,239,0.0,0.0,71,0.00,,,0.00,,2013-04-26 05:22:00,
2013-04-26 01:32:00,47.0,39.0,30.34,WSW,257,2.0,2.0,73,0.00,,,0.00,,2013-04-26 05:32:00,
2013-04-26 01:42:00,47.0,39.0,30.34,WSW,257,2.0,2.0,73,0.00,,,0.00,,2013-04-26 05:42:00,
2013-04-26 01:52:00,47.0,38.0,30.34,WSW,256,0.0,0.0,72,0.00,,,0.00,,2013-04-26 05:52:00,
2013-04-26 02:02:00,46.0,38.0,30.34,WNW,293,0.0,0.0,73,0.00,,,0.00,,2013-04-26 06:02:00,
2013-04-26 02:11:00,46.0,38.0,30.34,WNW,293,0.0,0.0,73,0.00,,,0.00,,2013-04-26 06:11:00,
2013-04-26 02:21:00,46.0,38.0,30.34,NW,322,0.0,0.0,74,0.00,,,0.00,,2013-04-26 06:21:00,
2013-04-26 02:32:00,45.0,38.0,30.34,NW,322,0.0,0.0,75,0.00,,,0.00,,2013-04-26 06:32:00,
2013-04-26 02:42:00,45.0,38.0,30.34,NW,322,0.0,0.0,75,0.00,,,0.00,,2013-04-26 06:42:00,
2013-04-26 02:52:00,44.0,37.0,30.33,NW,322,0.0,0.0,77,0.00,,,0.00,,2013-04-26 06:52:00,
2013-04-26 03:01:00,44.0,38.0,30.34,NW,322,0.0,0.0,78,0.00,,,0.00,,2013-04-26 07:01:00,
2013-04-26 03:11:00,44.0,38.0,30.34,NW,322,0.0,0.0,78,0.00,,,0.00,,2013-04-26 07:11:00,
2013-04-26 03:22:00,43.0,37.0,30.34,NW,322,0.0,0.0,79,0.00,,,0.00,,2013-04-26 07:22:00,
2013-04-26 03:31:00,43.0,38.0,30.34,NW,322,0.0,0.0,81,0.00,,,0.00,,2013-04-26 07:31:00,
2013-04-26 03:42:00,43.0,38.0,30.34,NW,322,0.0,0.0,81,0.00,,,0.00,,2013-04-26 07:42:00,
2013-04-26 03:52:00,42.0,37.0,30.34,WNW,287,0.0,0.0,82,0.00,,,0.00,,2013-04-26 07:52:00,
2013-04-26 04:02:00,42.0,37.0,30.34,WNW,287,0.0,0.0,83,0.00,,,0.00,,2013-04-26 08:02:00,
2013-04-26 04:11:00,42.0,37.0,30.34,WNW,287,0.0,0.0,83,0.00,,,0.00,,2013-04-26 08:11:00,
2013-04-26 04:22:00,42.0,38.0,30.35,WNW,287,0.0,0.0,85,0.00,,,0.00,,2013-04-26 08:22:00,
2013-04-26 04:32:00,41.0,37.0,30.35,WNW,287,0.0,0.0,85,0.00,,,0.00,,2013-04-26 08:32:00,
2013-04-26 04:42:00,41.0,37.0,30.35,WNW,287,0.0,0.0,85,0.00,,,0.00,,2013-04-26 08:42:00,
2013-04-26 04:52:00,41.0,37.0,30.35,WNW,287,0.0,0.0,85,0.00,,,0.00,,2013-04-26 08:52:00,
2013-04-26 05:01:00,40.0,36.0,30.36,WNW,287,0.0,0.0,84,0.00,,,0.00,,2013-04-26 09:01:00,
2013-04-26 05:11:00,40.0,36.0,30.36,WNW,287,0.0,0.0,84,0.00,,,0.00,,2013-04-26 09:11:00,
2013-04-26 05:21:00,40.0,35.0,30.36,WNW,287,0.0,0.0,83,0.00,,,0.00,,2013-04-26 09:21:00,
2013-04-26 05:33:00,40.0,35.0,30.36,WNW,287,0.0,0.0,83,0.00,,,0.00,,2013-04-26 09:33:00,
2013-04-26 05:43:00,40.0,35.0,30.36,WNW,287,0.0,0.0,83,0.00,,,0.00,,2013-04-26 09:43:00,
2013-04-26 05:53:00,40.0,36.0,30.36,WNW,287,0.0,0.0,85,0.00,,,0.00,,2013-04-26 09:53:00,
2013-04-26 06:03:00,39.0,35.0,30.37,WNW,287,0.0,0.0,85,0.00,,,0.00,,2013-04-26 10:03:00,
2013-04-26 06:12:00,39.0,35.0,30.37,WNW,287,0.0,0.0,85,0.00,,,0.00,,2013-04-26 10:12:00,
2013-04-26 06:23:00,39.0,35.0,30.37,WNW,287,0.0,0.0,84,0.00,,,0.00,,2013-04-26 10:23:00,
2013-04-26 06:33:00,39.0,34.0,30.38,WNW,287,0.0,0.0,83,0.00,,,0.00,,2013-04-26 10:33:00,
2013-04-26 06:42:00,39.0,34.0,30.38,WNW,287,0.0,0.0,83,0.00,,,0.00,,2013-04-26 10:42:00,
2013-04-26 06:52:00,39.0,34.0,30.38,WNW,287,0.0,0.0,83,0.00,,,0.00,,2013-04-26 10:52:00,
2013-04-26 07:02:00,38.0,34.0,30.39,WNW,287,0.0,0.0,85,0.00,,,0.00,,2013-04-26 11:02:00,
2013-04-26 07:11:00,38.0,34.0,30.39,WNW,287,0.0,0.0,85,0.00,,,0.00,,2013-04-26 11:11:00,
2013-04-26 07:22:00,38.0,34.0,30.39,WNW,287,0.0,0.0,87,0.00,,,0.00,,2013-04-26 11:22:00,
2013-04-26 07:32:00,39.0,35.0,30.40,WNW,287,0.0,0.0,85,0.00,,,0.00,,2013-04-26 11:32:00,
2013-04-26 07:42:00,39.0,35.0,30.40,WNW,287,0.0,0.0,85,0.00,,,0.00,,2013-04-26 11:42:00,
2013-04-26 07:52:00,40.0,35.0,30.40,WNW,287,0.0,0.0,83,0.00,,,0.00,,2013-04-26 11:52:00,
2013-04-26 08:01:00,41.0,36.0,30.40,WNW,287,0.0,0.0,83,0.00,,,0.00,,2013-04-26 12:01:00,
2013-04-26 08:11:00,41.0,36.0,30.40,WNW,287,0.0,0.0,83,0.00,,,0.00,,2013-04-26 12:11:00,
2013-04-26 08:21:00,41.0,37.0,30.40,WNW,287,0.0,0.0,84,0.00,,,0.00,,2013-04-26 12:21:00,
2013-04-26 08:32:00,42.0,36.0,30.40,WNW,287,0.0,0.0,79,0.00,,,0.00,,2013-04-26 12:32:00,
2013-04-26 08:42:00,42.0,36.0,30.40,WNW,287,0.0,0.0,79,0.00,,,0.00,,2013-04-26 12:42:00,
2013-04-26 08:52:00,44.0,36.0,30.42,North,356,0.0,3.0,74,0.00,,,0.00,,2013-04-26 12:52:00,
2013-04-26 09:01:00,45.0,36.0,30.41,NE,51,0.0,0.0,70,0.00,,,0.00,,2013-04-26 13:01:00,
2013-04-26 09:11:00,45.0,36.0,30.41,NE,51,0.0,0.0,70,0.00,,,0.00,,2013-04-26 13:11:00,
2013-04-26 09:22:00,47.0,36.0,30.40,NE,44,0.0,1.0,66,0.00,,,0.00,,2013-04-26 13:22:00,
2013-04-26 09:32:00,48.0,34.0,30.40,ENE,68,2.0,2.0,58,0.00,,,0.00,,2013-04-26 13:32:00,
2013-04-26 09:42:00,48.0,34.0,30.40,ENE,68,2.0,2.0,58,0.00,,,0.00,,2013-04-26 13:42:00,
2013-04-26 09:52:00,49.0,35.0,30.40,East,84,0.0,3.0,58,0.00,,,0.00,,2013-04-26 13:52:00,
2013-04-26 10:01:00,51.0,35.0,30.40,ENE,72,0.0,0.0,55,0.00,,,0.00,,2013-04-26 14:01:00,
2013-04-26 10:11:00,51.0,35.0,30.40,ENE,72,0.0,0.0,55,0.00,,,0.00,,2013-04-26 14:11:00,
2013-04-26 10:21:00,50.0,34.0,30.39,ENE,63,0.0,0.0,53,0.00,,,0.00,,2013-04-26 14:21:00,
2013-04-26 10:32:00,50.0,34.0,30.39,ENE,63,0.0,0.0,53,0.00,,,0.00,,2013-04-26 14:32:00,
2013-04-26 10:42:00,50.0,34.0,30.39,ENE,63,0.0,0.0,53,0.00,,,0.00,,2013-04-26 14:42:00,
2013-04-26 10:52:00,52.0,36.0,30.38,East,89,3.0,8.0,54,0.00,,,0.00,,2013-04-26 14:52:00,
2013-04-26 11:01:00,53.0,35.0,30.40,ESE,104,3.0,3.0,51,0.00,,,0.00,,2013-04-26 15:01:00,
2013-04-26 11:12:00,53.0,35.0,30.40,ESE,104,3.0,3.0,51,0.00,,,0.00,,2013-04-26 15:12:00,
2013-04-26 11:21:00,53.0,35.0,30.40,NE,37,4.0,4.0,50,0.00,,,0.00,,2013-04-26 15:21:00,
2013-04-26 11:33:00,55.0,37.0,30.41,East,84,0.0,9.0,51,0.00,,,0.00,,2013-04-26 15:33:00,
2013-04-26 11:43:00,55.0,37.0,30.41,East,84,0.0,9.0,51,0.00,,,0.00,,2013-04-26 15:43:00,
2013-04-26 11:53:00,55.0,36.0,30.41,East,89,6.0,6.0,48,0.00,,,0.00,,2013-04-26 15:53:00,
2013-04-26 12:03:00,55.0,37.0,30.41,SE,127,0.0,3.0,51,0.00,,,0.00,,2013-04-26 16:03:00,
2013-04-26 12:12:00,55.0,37.0,30.41,SE,127,0.0,3.0,51,0.00,,,0.00,,2013-04-26 16:12:00,
2013-04-26 12:23:00,56.0,36.0,30.42,ENE,69,5.0,5.0,47,0.00,,,0.00,,2013-04-26 16:23:00,
2013-04-26 12:33:00,58.0,37.0,30.41,SSE,159,0.0,0.0,46,0.00,,,0.00,,2013-04-26 16:33:00,
2013-04-26 12:42:00,58.0,37.0,30.41,SSE,159,0.0,0.0,46,0.00,,,0.00,,2013-04-26 16:42:00,
2013-04-26 12:53:00,58.0,38.0,30.41,WSW,255,0.0,0.0,47,0.00,,,0.00,,2013-04-26 16:53:00,
2013-04-26 13:02:00,58.0,36.0,30.40,NW,314,1.0,0.0,44,0.00,,,0.00,,2013-04-26 17:02:00,
2013-04-26 13:12:00,58.0,36.0,30.40,NW,314,1.0,0.0,44,0.00,,,0.00,,2013-04-26 17:12:00,
2013-04-26 13:22:00,59.0,33.0,30.40,NNW,333,3.0,5.0,37,0.00,,,0.00,,2013-04-26 17:22:00,
2013-04-26 13:32:00,59.0,35.0,30.40,NW,318,3.0,3.0,41,0.00,,,0.00,,2013-04-26 17:32:00,
2013-04-26 13:42:00,59.0,35.0,30.40,NW,318,3.0,3.0,41,0.00,,,0.00,,2013-04-26 17:42:00,
2013-04-26 13:52:00,59.0,35.0,30.40,South,169,2.0,3.0,41,0.00,,,0.00,,2013-04-26 17:52:00,
2013-04-26 14:02:00,60.0,36.0,30.40,SE,141,1.0,2.0,41,0.00,,,0.00,,2013-04-26 18:02:00,
2013-04-26 14:12:00,60.0,35.0,30.40,SE,132,2.0,2.0,39,0.00,,,0.00,,2013-04-26 18:12:00,
2013-04-26 14:22:00,60.0,35.0,30.40,SE,132,2.0,2.0,39,0.00,,,0.00,,2013-04-26 18:22:00,
2013-04-26 14:33:00,61.0,36.0,30.39,NE,44,2.0,4.0,40,0.00,,,0.00,,2013-04-26 18:33:00,
2013-04-26 14:42:00,61.0,36.0,30.39,NE,44,2.0,4.0,40,0.00,,,0.00,,2013-04-26 18:42:00,
2013-04-26 14:52:00,61.0,36.0,30.39,SE,125,0.0,0.0,39,0.00,,,0.00,,2013-04-26 18:52:00,
2013-04-26 15:01:00,60.0,35.0,30.39,SE,127,3.0,4.0,39,0.00,,,0.00,,2013-04-26 19:01:00,
2013-04-26 15:12:00,60.0,35.0,30.39,SE,127,3.0,4.0,39,0.00,,,0.00,,2013-04-26 19:12:00,
2013-04-26 15:22:00,61.0,35.0,30.38,SE,125,0.0,0.0,38,0.00,,,0.00,,2013-04-26 19:22:00,
2013-04-26 15:32:00,61.0,36.0,30.37,SE,132,0.0,0.0,39,0.00,,,0.00,,2013-04-26 19:32:00,
2013-04-26 15:42:00,61.0,36.0,30.37,SE,132,0.0,0.0,39,0.00,,,0.00,,2013-04-26 19:42:00,
2013-04-26 15:52:00,61.0,36.0,30.37,SE,135,0.0,0.0,40,0.00,,,0.00,,2013-04-26 19:52:00,
2013-04-26 16:02:00,61.0,34.0,30.35,SSW,193,0.0,0.0,36,0.00,,,0.00,,2013-04-26 20:02:00,
2013-04-26 16:11:00,61.0,33.0,30.34,East,83,2.0,3.0,35,0.00,,,0.00,,2013-04-26 20:11:00,
2013-04-26 16:22:00,61.0,33.0,30.34,East,83,2.0,3.0,35,0.00,,,0.00,,2013-04-26 20:22:00,
2013-04-26 16:32:00,62.0,34.0,30.33,East,91,0.0,0.0,35,0.00,,,0.00,,2013-04-26 20:32:00,
2013-04-26 16:42:00,62.0,34.0,30.33,East,91,0.0,0.0,35,0.00,,,0.00,,2013-04-26 20:42:00,
2013-04-26 16:52:00,62.0,33.0,30.33,ESE,104,0.0,0.0,34,0.00,,,0.00,,2013-04-26 20:52:00,
2013-04-26 17:02:00,62.0,34.0,30.33,East,100,2.0,0.0,35,0.00,,,0.00,,2013-04-26 21:02:00,
2013-04-26 17:11:00,62.0,34.0,30.33,East,100,2.0,0.0,35,0.00,,,0.00,,2013-04-26 21:11:00,
2013-04-26 17:22:00,62.0,35.0,30.34,SE,132,0.0,0.0,36,0.00,,,0.00,,2013-04-26 21:22:00,
2013-04-26 17:33:00,62.0,35.0,30.34,SE,145,0.0,0.0,36,0.00,,,0.00,,2013-04-26 21:33:00,
2013-04-26 17:42:00,62.0,35.0,30.34,SE,145,0.0,0.0,36,0.00,,,0.00,,2013-04-26 21:42:00,
2013-04-26 17:53:00,61.0,36.0,30.34,South,186,0.0,0.0,39,0.00,,,0.00,,2013-04-26 21:53:00,
2013-04-26 18:02:00,61.0,35.0,30.35,South,186,0.0,0.0,38,0.00,,,0.00,,2013-04-26 22:02:00,
2013-04-26 18:12:00,61.0,35.0,30.35,South,186,0.0,0.0,38,0.00,,,0.00,,2013-04-26 22:12:00,
2013-04-26 18:23:00,61.0,36.0,30.35,South,186,0.0,0.0,39,0.00,,,0.00,,2013-04-26 22:23:00,
2013-04-26 18:33:00,61.0,36.0,30.35,South,186,0.0,0.0,39,0.00,,,0.00,,2013-04-26 22:33:00,
2013-04-26 18:42:00,61.0,36.0,30.35,South,186,0.0,0.0,39,0.00,,,0.00,,2013-04-26 22:42:00,
2013-04-26 18:52:00,61.0,36.0,30.35,South,190,0.0,0.0,39,0.00,,,0.00,,2013-04-26 22:52:00,
2013-04-26 19:02:00,61.0,36.0,30.35,South,190,0.0,0.0,39,0.00,,,0.00,,2013-04-26 23:02:00,
2013-04-26 19:12:00,61.0,36.0,30.35,South,190,0.0,0.0,39,0.00,,,0.00,,2013-04-26 23:12:00,
2013-04-26 19:21:00,60.0,36.0,30.35,South,190,0.0,0.0,41,0.00,,,0.00,,2013-04-26 23:21:00,
2013-04-26 19:32:00,60.0,37.0,30.34,South,190,0.0,0.0,42,0.00,,,0.00,,2013-04-26 23:32:00,
2013-04-26 19:42:00,60.0,37.0,30.34,South,190,0.0,0.0,42,0.00,,,0.00,,2013-04-26 23:42:00,
2013-04-26 19:52:00,60.0,37.0,30.34,South,190,0.0,0.0,42,0.00,,,0.00,,2013-04-26 23:52:00,
2013-04-26 20:01:00,59.0,37.0,30.33,South,190,0.0,0.0,44,0.00,,,0.00,,2013-04-27 00:01:00,
2013-04-26 20:11:00,59.0,37.0,30.33,South,190,0.0,0.0,44,0.00,,,0.00,,2013-04-27 00:11:00,
2013-04-26 20:21:00,59.0,38.0,30.33,South,190,0.0,0.0,46,0.00,,,0.00,,2013-04-27 00:21:00,
2013-04-26 20:32:00,58.0,38.0,30.33,South,190,0.0,0.0,47,0.00,,,0.00,,2013-04-27 00:32:00,
2013-04-26 20:42:00,58.0,38.0,30.33,South,190,0.0,0.0,47,0.00,,,0.00,,2013-04-27 00:42:00,
2013-04-26 20:52:00,57.0,36.0,30.34,South,190,0.0,0.0,46,0.00,,,0.00,,2013-04-27 00:52:00,
2013-04-26 21:01:00,57.0,38.0,30.34,South,190,0.0,0.0,49,0.00,,,0.00,,2013-04-27 01:01:00,
2013-04-26 21:12:00,57.0,38.0,30.34,South,190,0.0,0.0,49,0.00,,,0.00,,2013-04-27 01:12:00,
2013-04-26 21:21:00,56.0,37.0,30.33,South,190,0.0,0.0,49,0.00,,,0.00,,2013-04-27 01:21:00,
2013-04-26 21:32:00,56.0,38.0,30.33,South,190,0.0,0.0,50,0.00,,,0.00,,2013-04-27 01:32:00,
2013-04-26 21:42:00,56.0,38.0,30.33,South,190,0.0,0.0,50,0.00,,,0.00,,2013-04-27 01:42:00,
2013-04-26 21:52:00,56.0,38.0,30.34,South,190,0.0,0.0,51,0.00,,,0.00,,2013-04-27 01:52:00,
2013-04-26 22:02:00,55.0,38.0,30.34,South,190,0.0,0.0,52,0.00,,,0.00,,2013-04-27 02:02:00,
2013-04-26 22:11:00,55.0,38.0,30.34,South,190,0.0,0.0,52,0.00,,,0.00,,2013-04-27 02:11:00,
2013-04-26 22:22:00,55.0,38.0,30.34,South,190,0.0,0.0,52,0.00,,,0.00,,2013-04-27 02:22:00,
2013-04-26 22:32:00,55.0,39.0,30.34,South,190,0.0,0.0,55,0.00,,,0.00,,2013-04-27 02:32:00,
2013-04-26 22:42:00,55.0,39.0,30.34,South,190,0.0,0.0,55,0.00,,,0.00,,2013-04-27 02:42:00,
2013-04-26 22:52:00,55.0,40.0,30.34,South,190,0.0,0.0,57,0.00,,,0.00,,2013-04-27 02:52:00,
2013-04-26 23:02:00,54.0,39.0,30.33,South,190,0.0,0.0,57,0.00,,,0.00,,2013-04-27 03:02:00,
2013-04-26 23:11:00,54.0,39.0,30.33,South,190,0.0,0.0,57,0.00,,,0.00,,2013-04-27 03:11:00,
2013-04-26 23:22:00,54.0,38.0,30.32,South,190,0.0,0.0,55,0.00,,,0.00,,2013-04-27 03:22:00,
2013-04-26 23:33:00,54.0,40.0,30.32,South,190,0.0,0.0,60,0.00,,,0.00,,2013-04-27 03:33:00,
2013-04-26 23:43:00,54.0,40.0,30.32,South,190,0.0,0.0,60,0.00,,,0.00,,2013-04-27 03:43:00,
2013-04-26 23:53:00,54.0,40.0,30.31,South,190,0.0,0.0,58,0.00,,,0.00,,2013-04-27 03:53:00,